Year,Month,Day,Hour,Minute,Value (Times are PST for temperature in C)
2010,05,07,00,00,8.30
2010,05,07,00,01,8.30
2010,05,07,00,02,8.30
2010,05,07,00,03,8.30
2010,05,07,00,04,8.20
2010,05,07,00,05,8.20
2010,05,07,00,06,8.20
2010,05,07,00,07,8.20
2010,05,07,00,08,8.10
2010,05,07,00,09,8.10
2010,05,07,00,10,8.10
2010,05,07,00,11,8.10
2010,05,07,00,12,8.10
2010,05,07,00,13,8.10
2010,05,07,00,14,8.00
2010,05,07,00,15,8.00
2010,05,07,00,16,8.00
2010,05,07,00,17,8.00
2010,05,07,00,18,8.00
2010,05,07,00,19,8.00
2010,05,07,00,20,8.00
2010,05,07,00,21,8.00
2010,05,07,00,22,8.00
2010,05,07,00,23,8.00
2010,05,07,00,24,8.00
2010,05,07,00,25,8.10
2010,05,07,00,26,8.10
2010,05,07,00,27,8.10
2010,05,07,00,28,8.10
2010,05,07,00,29,8.10
2010,05,07,00,30,8.00
2010,05,07,00,31,8.00
2010,05,07,00,32,8.00
2010,05,07,00,33,8.00
2010,05,07,00,34,8.00
2010,05,07,00,35,8.00
2010,05,07,00,36,8.00
2010,05,07,00,37,8.00
2010,05,07,00,38,8.00
2010,05,07,00,39,8.00
2010,05,07,00,40,7.90
2010,05,07,00,41,8.00
2010,05,07,00,42,8.00
2010,05,07,00,43,8.00
2010,05,07,00,44,7.90
2010,05,07,00,45,7.90
2010,05,07,00,46,7.90
2010,05,07,00,47,7.90
2010,05,07,00,48,7.90
2010,05,07,00,49,7.90
2010,05,07,00,50,7.90
2010,05,07,00,51,7.90
2010,05,07,00,52,7.90
2010,05,07,00,53,7.90
2010,05,07,00,54,7.90
2010,05,07,00,55,7.80
2010,05,07,00,56,7.80
2010,05,07,00,57,7.80
2010,05,07,00,58,7.80
2010,05,07,00,59,7.80
2010,05,07,01,00,7.80
2010,05,07,01,01,7.80
2010,05,07,01,02,7.80
2010,05,07,01,03,7.70
2010,05,07,01,04,7.70
2010,05,07,01,05,7.70
2010,05,07,01,06,7.70
2010,05,07,01,07,7.70
2010,05,07,01,08,7.70
2010,05,07,01,09,7.70
2010,05,07,01,10,7.70
2010,05,07,01,11,7.70
2010,05,07,01,12,7.60
2010,05,07,01,13,7.60
2010,05,07,01,14,7.60
2010,05,07,01,15,7.60
2010,05,07,01,16,7.60
2010,05,07,01,17,7.60
2010,05,07,01,18,7.60
2010,05,07,01,19,7.60
2010,05,07,01,20,7.60
2010,05,07,01,21,7.60
2010,05,07,01,22,7.60
2010,05,07,01,23,7.60
2010,05,07,01,24,7.60
2010,05,07,01,25,7.60
2010,05,07,01,26,7.60
2010,05,07,01,27,7.50
2010,05,07,01,28,7.50
2010,05,07,01,29,7.60
2010,05,07,01,30,7.60
2010,05,07,01,31,7.60
2010,05,07,01,32,7.50
2010,05,07,01,33,7.50
2010,05,07,01,34,7.50
2010,05,07,01,35,7.50
2010,05,07,01,36,7.50
2010,05,07,01,37,7.50
2010,05,07,01,38,7.50
2010,05,07,01,39,7.40
2010,05,07,01,40,7.40
2010,05,07,01,41,7.40
2010,05,07,01,42,7.40
2010,05,07,01,43,7.30
2010,05,07,01,44,7.30
2010,05,07,01,45,7.30
2010,05,07,01,46,7.30
2010,05,07,01,47,7.30
2010,05,07,01,48,7.30
2010,05,07,01,49,7.30
2010,05,07,01,50,7.30
2010,05,07,01,51,7.30
2010,05,07,01,52,7.30
2010,05,07,01,53,7.20
2010,05,07,01,54,7.20
2010,05,07,01,55,7.20
2010,05,07,01,56,7.20
2010,05,07,01,57,7.20
2010,05,07,01,58,7.20
2010,05,07,01,59,7.20
2010,05,07,02,00,7.20
2010,05,07,02,01,7.20
2010,05,07,02,02,7.20
2010,05,07,02,03,7.20
2010,05,07,02,04,7.20
2010,05,07,02,05,7.20
2010,05,07,02,06,7.20
2010,05,07,02,07,7.20
2010,05,07,02,08,7.20
2010,05,07,02,09,7.20
2010,05,07,02,10,7.20
2010,05,07,02,11,7.20
2010,05,07,02,12,7.20
2010,05,07,02,13,7.20
2010,05,07,02,14,7.20
2010,05,07,02,15,7.20
2010,05,07,02,16,7.20
2010,05,07,02,17,7.20
2010,05,07,02,18,7.10
2010,05,07,02,19,7.10
2010,05,07,02,20,7.10
2010,05,07,02,21,7.10
2010,05,07,02,22,7.10
2010,05,07,02,23,7.10
2010,05,07,02,24,7.10
2010,05,07,02,25,7.10
2010,05,07,02,26,7.10
2010,05,07,02,27,7.10
2010,05,07,02,28,7.10
2010,05,07,02,29,7.10
2010,05,07,02,30,7.10
2010,05,07,02,31,7.10
2010,05,07,02,32,7.10
2010,05,07,02,33,7.10
2010,05,07,02,34,7.10
2010,05,07,02,35,7.10
2010,05,07,02,36,7.10
2010,05,07,02,37,7.10
2010,05,07,02,38,7.10
2010,05,07,02,39,7.10
2010,05,07,02,40,7.10
2010,05,07,02,41,7.10
2010,05,07,02,42,7.20
2010,05,07,02,43,7.20
2010,05,07,02,44,7.20
2010,05,07,02,45,7.20
2010,05,07,02,46,7.20
2010,05,07,02,47,7.20
2010,05,07,02,48,7.20
2010,05,07,02,49,7.20
2010,05,07,02,50,7.20
2010,05,07,02,51,7.20
2010,05,07,02,52,7.10
2010,05,07,02,53,7.10
2010,05,07,02,54,7.10
2010,05,07,02,55,7.10
2010,05,07,02,56,7.10
2010,05,07,02,57,7.10
2010,05,07,02,58,7.10
2010,05,07,02,59,7.00
2010,05,07,03,00,7.00
2010,05,07,03,01,7.00
2010,05,07,03,02,7.00
2010,05,07,03,03,7.00
2010,05,07,03,04,7.00
2010,05,07,03,05,7.00
2010,05,07,03,06,7.00
2010,05,07,03,07,6.90
2010,05,07,03,08,6.90
2010,05,07,03,09,6.90
2010,05,07,03,10,6.90
2010,05,07,03,11,6.90
2010,05,07,03,12,6.90
2010,05,07,03,13,6.90
2010,05,07,03,14,6.90
2010,05,07,03,15,6.90
2010,05,07,03,16,6.90
2010,05,07,03,17,6.90
2010,05,07,03,18,6.90
2010,05,07,03,19,6.90
2010,05,07,03,20,6.90
2010,05,07,03,21,6.90
2010,05,07,03,22,6.90
2010,05,07,03,23,6.90
2010,05,07,03,24,6.90
2010,05,07,03,25,6.90
2010,05,07,03,26,6.90
2010,05,07,03,27,6.90
2010,05,07,03,28,6.90
2010,05,07,03,29,6.90
2010,05,07,03,30,6.90
2010,05,07,03,31,6.90
2010,05,07,03,32,6.90
2010,05,07,03,33,6.90
2010,05,07,03,34,6.90
2010,05,07,03,35,6.90
2010,05,07,03,36,6.90
2010,05,07,03,37,6.90
2010,05,07,03,38,6.90
2010,05,07,03,39,6.90
2010,05,07,03,40,6.90
2010,05,07,03,41,6.80
2010,05,07,03,42,6.80
2010,05,07,03,43,6.80
2010,05,07,03,44,6.80
2010,05,07,03,45,6.80
2010,05,07,03,46,6.80
2010,05,07,03,47,6.80
2010,05,07,03,48,6.80
2010,05,07,03,49,6.80
2010,05,07,03,50,6.80
2010,05,07,03,51,6.80
2010,05,07,03,52,6.80
2010,05,07,03,53,6.80
2010,05,07,03,54,6.80
2010,05,07,03,55,6.80
2010,05,07,03,56,6.80
2010,05,07,03,57,6.80
2010,05,07,03,58,6.80
2010,05,07,03,59,6.80
2010,05,07,04,00,6.70
2010,05,07,04,01,6.70
2010,05,07,04,02,6.70
2010,05,07,04,03,6.70
2010,05,07,04,04,6.70
2010,05,07,04,05,6.70
2010,05,07,04,06,6.70
2010,05,07,04,07,6.70
2010,05,07,04,08,6.70
2010,05,07,04,09,6.60
2010,05,07,04,10,6.60
2010,05,07,04,11,6.60
2010,05,07,04,12,6.60
2010,05,07,04,13,6.60
2010,05,07,04,14,6.60
2010,05,07,04,15,6.60
2010,05,07,04,16,6.60
2010,05,07,04,17,6.60
2010,05,07,04,18,6.60
2010,05,07,04,19,6.70
2010,05,07,04,20,6.70
2010,05,07,04,21,6.70
2010,05,07,04,22,6.70
2010,05,07,04,23,6.70
2010,05,07,04,24,6.70
2010,05,07,04,25,6.70
2010,05,07,04,26,6.70
2010,05,07,04,27,6.70
2010,05,07,04,28,6.70
2010,05,07,04,29,6.70
2010,05,07,04,30,6.70
2010,05,07,04,31,6.70
2010,05,07,04,32,6.70
2010,05,07,04,33,6.70
2010,05,07,04,34,6.70
2010,05,07,04,35,6.70
2010,05,07,04,36,6.70
2010,05,07,04,37,6.70
2010,05,07,04,38,6.70
2010,05,07,04,39,6.70
2010,05,07,04,40,6.70
2010,05,07,04,41,6.70
2010,05,07,04,42,6.70
2010,05,07,04,43,6.70
2010,05,07,04,44,6.70
2010,05,07,04,45,6.70
2010,05,07,04,46,6.70
2010,05,07,04,47,6.70
2010,05,07,04,48,6.70
2010,05,07,04,49,6.60
2010,05,07,04,50,6.60
2010,05,07,04,51,6.60
2010,05,07,04,52,6.60
2010,05,07,04,53,6.60
2010,05,07,04,54,6.60
2010,05,07,04,55,6.60
2010,05,07,04,56,6.60
2010,05,07,04,57,6.60
2010,05,07,04,58,6.50
2010,05,07,04,59,6.50
2010,05,07,05,00,6.50
2010,05,07,05,01,6.50
2010,05,07,05,02,6.50
2010,05,07,05,03,6.50
2010,05,07,05,04,6.50
2010,05,07,05,05,6.50
2010,05,07,05,06,6.50
2010,05,07,05,07,6.50
2010,05,07,05,08,6.50
2010,05,07,05,09,6.50
2010,05,07,05,10,6.50
2010,05,07,05,11,6.50
2010,05,07,05,12,6.60
2010,05,07,05,13,6.60
2010,05,07,05,14,6.60
2010,05,07,05,15,6.60
2010,05,07,05,16,6.70
2010,05,07,05,17,6.70
2010,05,07,05,18,6.70
2010,05,07,05,19,6.70
2010,05,07,05,20,6.70
2010,05,07,05,21,6.70
2010,05,07,05,22,6.70
2010,05,07,05,23,6.70
2010,05,07,05,24,6.70
2010,05,07,05,25,6.80
2010,05,07,05,26,6.80
2010,05,07,05,27,6.80
2010,05,07,05,28,6.80
2010,05,07,05,29,6.80
2010,05,07,05,30,6.80
2010,05,07,05,31,6.90
2010,05,07,05,32,6.90
2010,05,07,05,33,6.90
2010,05,07,05,34,6.90
2010,05,07,05,35,6.90
2010,05,07,05,36,6.90
2010,05,07,05,37,6.90
2010,05,07,05,38,6.90
2010,05,07,05,39,6.90
2010,05,07,05,40,6.90
2010,05,07,05,41,6.80
2010,05,07,05,42,6.80
2010,05,07,05,43,6.80
2010,05,07,05,44,6.80
2010,05,07,05,45,6.80
2010,05,07,05,46,6.80
2010,05,07,05,47,6.80
2010,05,07,05,48,6.80
2010,05,07,05,49,6.80
2010,05,07,05,50,6.80
2010,05,07,05,51,6.80
2010,05,07,05,52,6.80
2010,05,07,05,53,6.80
2010,05,07,05,54,6.80
2010,05,07,05,55,6.80
2010,05,07,05,56,6.80
2010,05,07,05,57,6.80
2010,05,07,05,58,6.80
2010,05,07,05,59,6.80
2010,05,07,06,00,6.80
2010,05,07,06,01,6.90
2010,05,07,06,02,6.90
2010,05,07,06,03,7.00
2010,05,07,06,04,7.00
2010,05,07,06,05,7.10
2010,05,07,06,06,7.10
2010,05,07,06,07,7.20
2010,05,07,06,08,7.20
2010,05,07,06,09,7.30
2010,05,07,06,10,7.30
2010,05,07,06,11,7.30
2010,05,07,06,12,7.30
2010,05,07,06,13,7.40
2010,05,07,06,14,7.50
2010,05,07,06,15,7.60
2010,05,07,06,16,7.70
2010,05,07,06,17,7.70
2010,05,07,06,18,7.80
2010,05,07,06,19,7.80
2010,05,07,06,20,7.80
2010,05,07,06,21,7.90
2010,05,07,06,22,8.00
2010,05,07,06,23,8.00
2010,05,07,06,24,8.10
2010,05,07,06,25,8.10
2010,05,07,06,26,8.20
2010,05,07,06,27,8.20
2010,05,07,06,28,8.30
2010,05,07,06,29,8.30
2010,05,07,06,30,8.30
2010,05,07,06,31,8.40
2010,05,07,06,32,8.40
2010,05,07,06,33,8.50
2010,05,07,06,34,8.50
2010,05,07,06,35,8.60
2010,05,07,06,36,8.70
2010,05,07,06,37,8.70
2010,05,07,06,38,8.80
2010,05,07,06,39,8.80
2010,05,07,06,40,8.90
2010,05,07,06,41,9.00
2010,05,07,06,42,9.00
2010,05,07,06,43,9.00
2010,05,07,06,44,9.10
2010,05,07,06,45,9.10
2010,05,07,06,46,9.10
2010,05,07,06,47,9.10
2010,05,07,06,48,9.20
2010,05,07,06,49,9.20
2010,05,07,06,50,9.20
2010,05,07,06,51,9.30
2010,05,07,06,52,9.30
2010,05,07,06,53,9.30
2010,05,07,06,54,9.30
2010,05,07,06,55,9.30
2010,05,07,06,56,9.30
2010,05,07,06,57,9.40
2010,05,07,06,58,9.40
2010,05,07,06,59,9.40
2010,05,07,07,00,9.40
2010,05,07,07,01,9.40
2010,05,07,07,02,9.40
2010,05,07,07,03,9.40
2010,05,07,07,04,9.40
2010,05,07,07,05,9.40
2010,05,07,07,06,9.50
2010,05,07,07,07,9.50
2010,05,07,07,08,9.50
2010,05,07,07,09,9.50
2010,05,07,07,10,9.50
2010,05,07,07,11,9.50
2010,05,07,07,12,9.50
2010,05,07,07,13,9.50
2010,05,07,07,14,9.50
2010,05,07,07,15,9.50
2010,05,07,07,16,9.50
2010,05,07,07,17,9.50
2010,05,07,07,18,9.50
2010,05,07,07,19,9.60
2010,05,07,07,20,9.60
2010,05,07,07,21,9.60
2010,05,07,07,22,9.60
2010,05,07,07,23,9.60
2010,05,07,07,24,9.60
2010,05,07,07,25,9.60
2010,05,07,07,26,9.70
2010,05,07,07,27,9.70
2010,05,07,07,28,9.70
2010,05,07,07,29,9.80
2010,05,07,07,30,9.80
2010,05,07,07,31,9.90
2010,05,07,07,32,9.90
2010,05,07,07,33,10.00
2010,05,07,07,34,10.00
2010,05,07,07,35,10.10
2010,05,07,07,36,10.10
2010,05,07,07,37,10.20
2010,05,07,07,38,10.20
2010,05,07,07,39,10.20
2010,05,07,07,40,10.20
2010,05,07,07,41,10.20
2010,05,07,07,42,10.20
2010,05,07,07,43,10.20
2010,05,07,07,44,10.20
2010,05,07,07,45,10.20
2010,05,07,07,46,10.20
2010,05,07,07,47,10.30
2010,05,07,07,48,10.30
2010,05,07,07,49,10.30
2010,05,07,07,50,10.30
2010,05,07,07,51,10.30
2010,05,07,07,52,10.30
2010,05,07,07,53,10.40
2010,05,07,07,54,10.40
2010,05,07,07,55,10.40
2010,05,07,07,56,10.40
2010,05,07,07,57,10.40
2010,05,07,07,58,10.40
2010,05,07,07,59,10.40
2010,05,07,08,00,10.40
2010,05,07,08,01,10.40
2010,05,07,08,02,10.40
2010,05,07,08,03,10.40
2010,05,07,08,04,10.40
2010,05,07,08,05,10.40
2010,05,07,08,06,10.50
2010,05,07,08,07,10.50
2010,05,07,08,08,10.50
2010,05,07,08,09,10.60
2010,05,07,08,10,10.60
2010,05,07,08,11,10.60
2010,05,07,08,12,10.50
2010,05,07,08,13,10.50
2010,05,07,08,14,10.50
2010,05,07,08,15,10.60
2010,05,07,08,16,10.60
2010,05,07,08,17,10.70
2010,05,07,08,18,10.70
2010,05,07,08,19,10.70
2010,05,07,08,20,10.70
2010,05,07,08,21,10.70
2010,05,07,08,22,10.70
2010,05,07,08,23,10.70
2010,05,07,08,24,10.70
2010,05,07,08,25,10.70
2010,05,07,08,26,10.70
2010,05,07,08,27,10.80
2010,05,07,08,28,10.80
2010,05,07,08,29,10.80
2010,05,07,08,30,10.70
2010,05,07,08,31,10.70
2010,05,07,08,32,10.70
2010,05,07,08,33,10.70
2010,05,07,08,34,10.70
2010,05,07,08,35,10.70
2010,05,07,08,36,10.70
2010,05,07,08,37,10.70
2010,05,07,08,38,10.70
2010,05,07,08,39,10.70
2010,05,07,08,40,10.70
2010,05,07,08,41,10.70
2010,05,07,08,42,10.70
2010,05,07,08,43,10.70
2010,05,07,08,44,10.80
2010,05,07,08,45,10.80
2010,05,07,08,46,10.80
2010,05,07,08,47,10.80
2010,05,07,08,48,10.80
2010,05,07,08,49,10.80
2010,05,07,08,50,10.80
2010,05,07,08,51,10.80
2010,05,07,08,52,10.80
2010,05,07,08,53,10.80
2010,05,07,08,54,10.90
2010,05,07,08,55,10.90
2010,05,07,08,56,11.00
2010,05,07,08,57,11.00
2010,05,07,08,58,11.10
2010,05,07,08,59,11.10
2010,05,07,09,00,11.10
2010,05,07,09,01,11.10
2010,05,07,09,02,11.20
2010,05,07,09,03,11.20
2010,05,07,09,04,11.20
2010,05,07,09,05,11.20
2010,05,07,09,06,11.20
2010,05,07,09,07,11.20
2010,05,07,09,08,11.20
2010,05,07,09,09,11.20
2010,05,07,09,10,11.20
2010,05,07,09,11,11.20
2010,05,07,09,12,11.30
2010,05,07,09,13,11.30
2010,05,07,09,14,11.30
2010,05,07,09,15,11.30
2010,05,07,09,16,11.20
2010,05,07,09,17,11.20
2010,05,07,09,18,11.20
2010,05,07,09,19,11.20
2010,05,07,09,20,11.20
2010,05,07,09,21,11.20
2010,05,07,09,22,11.20
2010,05,07,09,23,11.20
2010,05,07,09,24,11.20
2010,05,07,09,25,11.20
2010,05,07,09,26,11.30
2010,05,07,09,27,11.30
2010,05,07,09,28,11.30
2010,05,07,09,29,11.30
2010,05,07,09,30,11.30
2010,05,07,09,31,11.30
2010,05,07,09,32,11.30
2010,05,07,09,33,11.30
2010,05,07,09,34,11.30
2010,05,07,09,35,11.30
2010,05,07,09,36,11.30
2010,05,07,09,37,11.30
2010,05,07,09,38,11.20
2010,05,07,09,39,11.30
2010,05,07,09,40,11.30
2010,05,07,09,41,11.30
2010,05,07,09,42,11.40
2010,05,07,09,43,11.40
2010,05,07,09,44,11.40
2010,05,07,09,45,11.40
2010,05,07,09,46,11.50
2010,05,07,09,47,11.50
2010,05,07,09,48,11.40
2010,05,07,09,49,11.40
2010,05,07,09,50,11.40
2010,05,07,09,51,11.40
2010,05,07,09,52,11.30
2010,05,07,09,53,11.30
2010,05,07,09,54,11.30
2010,05,07,09,55,11.30
2010,05,07,09,56,11.30
2010,05,07,09,57,11.30
2010,05,07,09,58,11.30
2010,05,07,09,59,11.40
2010,05,07,10,00,11.40
2010,05,07,10,01,11.40
2010,05,07,10,02,11.40
2010,05,07,10,03,11.40
2010,05,07,10,04,11.40
2010,05,07,10,05,11.30
2010,05,07,10,06,11.30
2010,05,07,10,07,11.30
2010,05,07,10,08,11.30
2010,05,07,10,09,11.30
2010,05,07,10,10,11.40
2010,05,07,10,11,11.50
2010,05,07,10,12,11.60
2010,05,07,10,13,11.60
2010,05,07,10,14,11.60
2010,05,07,10,15,11.60
2010,05,07,10,16,11.60
2010,05,07,10,17,11.70
2010,05,07,10,18,11.60
2010,05,07,10,19,11.60
2010,05,07,10,20,11.60
2010,05,07,10,21,11.60
2010,05,07,10,22,11.60
2010,05,07,10,23,11.60
2010,05,07,10,24,11.60
2010,05,07,10,25,11.60
2010,05,07,10,26,11.60
2010,05,07,10,27,11.50
2010,05,07,10,28,11.50
2010,05,07,10,29,11.50
2010,05,07,10,30,11.50
2010,05,07,10,31,11.50
2010,05,07,10,32,11.50
2010,05,07,10,33,11.40
2010,05,07,10,34,11.40
2010,05,07,10,35,11.50
2010,05,07,10,36,11.40
2010,05,07,10,37,11.40
2010,05,07,10,38,11.40
2010,05,07,10,39,11.40
2010,05,07,10,40,11.40
2010,05,07,10,41,11.50
2010,05,07,10,42,11.50
2010,05,07,10,43,11.60
2010,05,07,10,44,11.60
2010,05,07,10,45,11.60
2010,05,07,10,46,11.60
2010,05,07,10,47,11.70
2010,05,07,10,48,11.70
2010,05,07,10,49,11.70
2010,05,07,10,50,11.80
2010,05,07,10,51,11.90
2010,05,07,10,52,12.00
2010,05,07,10,53,12.00
2010,05,07,10,54,12.10
2010,05,07,10,55,12.10
2010,05,07,10,56,12.10
2010,05,07,10,57,12.10
2010,05,07,10,58,12.10
2010,05,07,10,59,12.10
2010,05,07,11,00,12.10
2010,05,07,11,01,12.10
2010,05,07,11,02,12.00
2010,05,07,11,03,12.00
2010,05,07,11,04,11.90
2010,05,07,11,05,11.90
2010,05,07,11,06,11.80
2010,05,07,11,07,11.80
2010,05,07,11,08,11.80
2010,05,07,11,09,11.80
2010,05,07,11,10,11.80
2010,05,07,11,11,11.90
2010,05,07,11,12,12.00
2010,05,07,11,13,12.00
2010,05,07,11,14,12.10
2010,05,07,11,15,12.10
2010,05,07,11,16,12.10
2010,05,07,11,17,12.10
2010,05,07,11,18,12.10
2010,05,07,11,19,12.10
2010,05,07,11,20,12.10
2010,05,07,11,21,12.10
2010,05,07,11,22,12.10
2010,05,07,11,23,12.10
2010,05,07,11,24,12.10
2010,05,07,11,25,12.00
2010,05,07,11,26,12.00
2010,05,07,11,27,12.10
2010,05,07,11,28,12.10
2010,05,07,11,29,12.10
2010,05,07,11,30,12.10
2010,05,07,11,31,12.20
2010,05,07,11,32,12.20
2010,05,07,11,33,12.20
2010,05,07,11,34,12.30
2010,05,07,11,35,12.30
2010,05,07,11,36,12.40
2010,05,07,11,37,12.40
2010,05,07,11,38,12.40
2010,05,07,11,39,12.40
2010,05,07,11,40,12.50
2010,05,07,11,41,12.50
2010,05,07,11,42,12.60
2010,05,07,11,43,12.60
2010,05,07,11,44,12.70
2010,05,07,11,45,12.80
2010,05,07,11,46,12.80
2010,05,07,11,47,12.90
2010,05,07,11,48,13.00
2010,05,07,11,49,13.10
2010,05,07,11,50,13.10
2010,05,07,11,51,13.10
2010,05,07,11,52,13.00
2010,05,07,11,53,13.00
2010,05,07,11,54,12.90
2010,05,07,11,55,12.90
2010,05,07,11,56,12.90
2010,05,07,11,57,13.00
2010,05,07,11,58,13.00
2010,05,07,11,59,13.10
2010,05,07,12,00,13.10
2010,05,07,12,01,13.20
2010,05,07,12,02,13.20
2010,05,07,12,03,13.20
2010,05,07,12,04,13.20
2010,05,07,12,05,13.20
2010,05,07,12,06,13.20
2010,05,07,12,07,13.30
2010,05,07,12,08,13.30
2010,05,07,12,09,13.30
2010,05,07,12,10,13.30
2010,05,07,12,11,13.20
2010,05,07,12,12,13.10
2010,05,07,12,13,13.10
2010,05,07,12,14,13.00
2010,05,07,12,15,13.00
2010,05,07,12,16,13.00
2010,05,07,12,17,13.00
2010,05,07,12,18,13.10
2010,05,07,12,19,13.10
2010,05,07,12,20,13.10
2010,05,07,12,21,13.10
2010,05,07,12,22,13.10
2010,05,07,12,23,13.20
2010,05,07,12,24,13.30
2010,05,07,12,25,13.30
2010,05,07,12,26,13.30
2010,05,07,12,27,13.20
2010,05,07,12,28,13.20
2010,05,07,12,29,13.20
2010,05,07,12,30,13.20
2010,05,07,12,31,13.30
2010,05,07,12,32,13.30
2010,05,07,12,33,13.40
2010,05,07,12,34,13.40
2010,05,07,12,35,13.40
2010,05,07,12,36,13.40
2010,05,07,12,37,13.50
2010,05,07,12,38,13.50
2010,05,07,12,39,13.60
2010,05,07,12,40,13.60
2010,05,07,12,41,13.60
2010,05,07,12,42,13.50
2010,05,07,12,43,13.50
2010,05,07,12,44,13.40
2010,05,07,12,45,13.40
2010,05,07,12,46,13.40
2010,05,07,12,47,13.50
2010,05,07,12,48,13.60
2010,05,07,12,49,13.70
2010,05,07,12,50,13.70
2010,05,07,12,51,13.70
2010,05,07,12,52,13.70
2010,05,07,12,53,13.70
2010,05,07,12,54,13.70
2010,05,07,12,55,13.70
2010,05,07,12,56,13.70
2010,05,07,12,57,13.70
2010,05,07,12,58,13.60
2010,05,07,12,59,13.60
2010,05,07,13,00,13.60
2010,05,07,13,01,13.60
2010,05,07,13,02,13.60
2010,05,07,13,03,13.60
2010,05,07,13,04,13.70
2010,05,07,13,05,13.70
2010,05,07,13,06,13.70
2010,05,07,13,07,13.70
2010,05,07,13,08,13.80
2010,05,07,13,09,13.80
2010,05,07,13,10,13.80
2010,05,07,13,11,13.80
2010,05,07,13,12,13.90
2010,05,07,13,13,14.00
2010,05,07,13,14,14.10
2010,05,07,13,15,14.20
2010,05,07,13,16,14.20
2010,05,07,13,17,14.20
2010,05,07,13,18,14.20
2010,05,07,13,19,14.10
2010,05,07,13,20,14.10
2010,05,07,13,21,14.00
2010,05,07,13,22,14.00
2010,05,07,13,23,14.00
2010,05,07,13,24,14.00
2010,05,07,13,25,14.10
2010,05,07,13,26,14.10
2010,05,07,13,27,14.10
2010,05,07,13,28,14.10
2010,05,07,13,29,14.20
2010,05,07,13,30,14.20
2010,05,07,13,31,14.10
2010,05,07,13,32,14.20
2010,05,07,13,33,14.20
2010,05,07,13,34,14.20
2010,05,07,13,35,14.20
2010,05,07,13,36,14.30
2010,05,07,13,37,14.30
2010,05,07,13,38,14.30
2010,05,07,13,39,14.30
2010,05,07,13,40,14.40
2010,05,07,13,41,14.40
2010,05,07,13,42,14.50
2010,05,07,13,43,14.60
2010,05,07,13,44,14.70
2010,05,07,13,45,14.70
2010,05,07,13,46,14.70
2010,05,07,13,47,14.80
2010,05,07,13,48,14.80
2010,05,07,13,49,14.80
2010,05,07,13,50,14.80
2010,05,07,13,51,14.80
2010,05,07,13,52,14.70
2010,05,07,13,53,14.60
2010,05,07,13,54,14.60
2010,05,07,13,55,14.60
2010,05,07,13,56,14.70
2010,05,07,13,57,14.60
2010,05,07,13,58,14.60
2010,05,07,13,59,14.50
2010,05,07,14,00,14.50
2010,05,07,14,01,14.50
2010,05,07,14,02,14.60
2010,05,07,14,03,14.60
2010,05,07,14,04,14.60
2010,05,07,14,05,14.60
2010,05,07,14,06,14.60
2010,05,07,14,07,14.60
2010,05,07,14,08,14.60
2010,05,07,14,09,14.70
2010,05,07,14,10,14.70
2010,05,07,14,11,14.70
2010,05,07,14,12,14.80
2010,05,07,14,13,14.80
2010,05,07,14,14,14.90
2010,05,07,14,15,14.90
2010,05,07,14,16,15.00
2010,05,07,14,17,15.10
2010,05,07,14,18,15.10
2010,05,07,14,19,15.10
2010,05,07,14,20,15.10
2010,05,07,14,21,15.10
2010,05,07,14,22,15.10
2010,05,07,14,23,15.20
2010,05,07,14,24,15.20
2010,05,07,14,25,15.30
2010,05,07,14,26,15.30
2010,05,07,14,27,15.30
2010,05,07,14,28,15.30
2010,05,07,14,29,15.30
2010,05,07,14,30,15.30
2010,05,07,14,31,15.30
2010,05,07,14,32,15.20
2010,05,07,14,33,15.20
2010,05,07,14,34,15.20
2010,05,07,14,35,15.20
2010,05,07,14,36,15.20
2010,05,07,14,37,15.10
2010,05,07,14,38,15.10
2010,05,07,14,39,15.10
2010,05,07,14,40,15.00
2010,05,07,14,41,15.00
2010,05,07,14,42,15.00
2010,05,07,14,43,15.00
2010,05,07,14,44,15.00
2010,05,07,14,45,15.00
2010,05,07,14,46,15.00
2010,05,07,14,47,15.10
2010,05,07,14,48,15.20
2010,05,07,14,49,15.20
2010,05,07,14,50,15.20
2010,05,07,14,51,15.20
2010,05,07,14,52,15.30
2010,05,07,14,53,15.30
2010,05,07,14,54,15.30
2010,05,07,14,55,15.40
2010,05,07,14,56,15.40
2010,05,07,14,57,15.30
2010,05,07,14,58,15.30
2010,05,07,14,59,15.30
2010,05,07,15,00,15.30
2010,05,07,15,01,15.30
2010,05,07,15,02,15.30
2010,05,07,15,03,15.40
2010,05,07,15,04,15.40
2010,05,07,15,05,15.40
2010,05,07,15,06,15.40
2010,05,07,15,07,15.40
2010,05,07,15,08,15.50
2010,05,07,15,09,15.50
2010,05,07,15,10,15.60
2010,05,07,15,11,15.60
2010,05,07,15,12,15.60
2010,05,07,15,13,15.50
2010,05,07,15,14,15.50
2010,05,07,15,15,15.40
2010,05,07,15,16,15.30
2010,05,07,15,17,15.20
2010,05,07,15,18,15.20
2010,05,07,15,19,15.20
2010,05,07,15,20,15.20
2010,05,07,15,21,15.20
2010,05,07,15,22,15.20
2010,05,07,15,23,15.20
2010,05,07,15,24,15.30
2010,05,07,15,25,15.30
2010,05,07,15,26,15.30
2010,05,07,15,27,15.40
2010,05,07,15,28,15.40
2010,05,07,15,29,15.40
2010,05,07,15,30,15.50
2010,05,07,15,31,15.50
2010,05,07,15,32,15.60
2010,05,07,15,33,15.70
2010,05,07,15,34,15.70
2010,05,07,15,35,15.70
2010,05,07,15,36,15.80
2010,05,07,15,37,15.80
2010,05,07,15,38,15.70
2010,05,07,15,39,15.70
2010,05,07,15,40,15.60
2010,05,07,15,41,15.60
2010,05,07,15,42,15.60
2010,05,07,15,43,15.60
2010,05,07,15,44,15.60
2010,05,07,15,45,15.60
2010,05,07,15,46,15.60
2010,05,07,15,47,15.50
2010,05,07,15,48,15.50
2010,05,07,15,49,15.40
2010,05,07,15,50,15.40
2010,05,07,15,51,15.40
2010,05,07,15,52,15.40
2010,05,07,15,53,15.40
2010,05,07,15,54,15.30
2010,05,07,15,55,15.30
2010,05,07,15,56,15.30
2010,05,07,15,57,15.30
2010,05,07,15,58,15.30
2010,05,07,15,59,15.30
2010,05,07,16,00,15.30
2010,05,07,16,01,15.30
2010,05,07,16,02,15.20
2010,05,07,16,03,15.20
2010,05,07,16,04,15.20
2010,05,07,16,05,15.20
2010,05,07,16,06,15.20
2010,05,07,16,07,15.10
2010,05,07,16,08,15.10
2010,05,07,16,09,15.20
2010,05,07,16,10,15.20
2010,05,07,16,11,15.20
2010,05,07,16,12,15.30
2010,05,07,16,13,15.30
2010,05,07,16,14,15.40
2010,05,07,16,15,15.50
2010,05,07,16,16,15.50
2010,05,07,16,17,15.60
2010,05,07,16,18,15.70
2010,05,07,16,19,15.70
2010,05,07,16,20,15.70
2010,05,07,16,21,15.70
2010,05,07,16,22,15.70
2010,05,07,16,23,15.70
2010,05,07,16,24,15.70
2010,05,07,16,25,15.70
2010,05,07,16,26,15.70
2010,05,07,16,27,15.70
2010,05,07,16,28,15.70
2010,05,07,16,29,15.70
2010,05,07,16,30,15.70
2010,05,07,16,31,15.80
2010,05,07,16,32,15.80
2010,05,07,16,33,15.80
2010,05,07,16,34,15.90
2010,05,07,16,35,16.00
2010,05,07,16,36,16.00
2010,05,07,16,37,16.00
2010,05,07,16,38,16.00
2010,05,07,16,39,16.10
2010,05,07,16,40,16.00
2010,05,07,16,41,16.00
2010,05,07,16,42,16.00
2010,05,07,16,43,15.90
2010,05,07,16,44,15.90
2010,05,07,16,45,16.00
2010,05,07,16,46,16.00
2010,05,07,16,47,16.00
2010,05,07,16,48,16.00
2010,05,07,16,49,16.00
2010,05,07,16,50,16.00
2010,05,07,16,51,16.10
2010,05,07,16,52,16.10
2010,05,07,16,53,16.10
2010,05,07,16,54,16.10
2010,05,07,16,55,16.00
2010,05,07,16,56,16.00
2010,05,07,16,57,15.90
2010,05,07,16,58,15.90
2010,05,07,16,59,15.90
2010,05,07,17,00,15.80
2010,05,07,17,01,15.80
2010,05,07,17,02,15.80
2010,05,07,17,03,15.80
2010,05,07,17,04,15.80
2010,05,07,17,05,15.80
2010,05,07,17,06,15.80
2010,05,07,17,07,15.80
2010,05,07,17,08,15.80
2010,05,07,17,09,15.80
2010,05,07,17,10,15.80
2010,05,07,17,11,15.80
2010,05,07,17,12,15.80
2010,05,07,17,13,15.80
2010,05,07,17,14,15.80
2010,05,07,17,15,15.80
2010,05,07,17,16,15.80
2010,05,07,17,17,15.80
2010,05,07,17,18,15.80
2010,05,07,17,19,15.80
2010,05,07,17,20,15.80
2010,05,07,17,21,15.80
2010,05,07,17,22,15.80
2010,05,07,17,23,15.80
2010,05,07,17,24,15.80
2010,05,07,17,25,15.80
2010,05,07,17,26,15.80
2010,05,07,17,27,15.80
2010,05,07,17,28,15.80
2010,05,07,17,29,15.90
2010,05,07,17,30,15.90
2010,05,07,17,31,15.90
2010,05,07,17,32,16.00
2010,05,07,17,33,16.00
2010,05,07,17,34,16.00
2010,05,07,17,35,16.00
2010,05,07,17,36,16.10
2010,05,07,17,37,16.10
2010,05,07,17,38,16.10
2010,05,07,17,39,16.10